Orbital Elements at Epoch 2459021.5 (2020-Jun-21.0) TDB
Reference: JPL 19 (heliocentric ecliptic J2000)
Element | Value | Uncertainty (1-sigma) | Units |
e | 1.001892805468253 | 2.6092e-05 | |
a | -4658.351205491995 | 64.252 | au |
q | 8.817352634798153 | 0.0001408 | au |
i | 163.5735700875102 | 0.00015322 | deg |
node | 250.2492835251749 | 0.00011353 | deg |
peri | 48.36973685580374 | 0.0022266 | deg |
M | -.002342822255606454 | 4.8522e-05 | deg |
tp | 2459777.259489735596 (2022-Jul-16.75948974) | 0.03143 | TDB |
period | n/a n/a | n/a n/a | d yr |
n | 3.099957443374075E-6 | 6.4136e-08 | deg/d |
Q | n/a | n/a | au |
|
| | Orbit Determination Parameters
Additional Information
|